User: anonymous   Login
Location: Springfield
(37.2150°N, 93.2980°W)
Time: 15:02:22
(UTC-05:00)
Language:

Iridium 62 - Orbit

View from above orbital plane
View from above orbital plane
View from above satellite
View from above satellite

Ground track
Ground track

The orbit data is extracted from the following two-line orbital elements,

1 25285U 98021A   14303.98957523  .00000441  00000-0  15036-3 0  9886
2 25285 086.3949 265.2368 0002067 102.1904 257.9524 14.34226075867398
Epoch (UTC): 30 October 2014 23:44:59
Eccentricity: 0.0002067
inclination: 86.3949°
perigee height: 776 km
apogee height: 779 km
right ascension of ascending node: 265.2368°
argument of perigee: 102.1904°
revolutions per day: 14.34226075
mean anomaly at epoch: 257.9524°
orbit number at epoch: 86739

The dashed part of the orbit path shows where the satellite is in the earth's shadow,  

DLR